Allentown, PA

6:30 PM EST on December 08, 2019 (GMT -0500)
Allentown

Weather History for KXLL - June, 2019

Change the Weather History Date:

Friday, June 14, 2019

  Actual Average (KABE) Record (KABE)
Temperature  
Mean Temperature - -  
Max Temperature - 78 °F 95 °F (1988)
Min Temperature - 57 °F 44 °F (1933)
Moisture  
Dew Point -    
Average Humidity    
Maximum Humidity    
Minimum Humidity    
Precipitation  
Precipitation 0.00 in - - ()
Sea Level Pressure  
Sea Level Pressure 29.93 in    
Wind  
Wind Speed 8 mph ()    
Max Wind Speed 18 mph    
Max Gust Speed 31 mph    
Visibility 10.0 miles    
Events      
Averages and records for this station are not official NWS values.
T = Trace of Precipitation, MM = Missing Value Source: Averaged Metar Reports

Daily Weather History Graph

Daily Weather History Graph

Search for Another Location

Airport or City:

Astronomy

Jun. 14, 2019 Rise Set
Actual Time 5:30 AM EDT 8:33 PM EDT
Civil Twilight 4:57 AM EDT 9:07 PM EDT
Nautical Twilight 4:15 AM EDT 9:49 PM EDT
Astronomical Twilight 3:25 AM EDT 10:39 PM EDT
Moon 5:52 PM EDT (6/14) 3:48 AM EDT (6/14)
Length of Visible Light 16h 09m
Length of Day
15h 03m
Waxing Gibbous, 92% of the Moon is Illuminated
Jun 14
Waxing Gibbous
Jun 17
Full
Jun 25
Last Quarter
Jul 2
New
Jul 9
First Quarter

Hourly Weather History & Observations

Time (EDT) Temp. Dew Point Humidity Pressure Visibility Wind Dir Wind Speed Gust Speed Precip Events Conditions
12:15 AM - - N/A% 29.81 in 10.0 mi SSW 5.8 mph - N/A   Clear
12:35 AM - - N/A% 29.82 in 10.0 mi South 6.9 mph - N/A   Clear
12:55 AM - - N/A% 29.81 in 10.0 mi SSW 3.5 mph - N/A   Clear
1:15 AM - - N/A% 29.81 in 10.0 mi SSW 3.5 mph - N/A   Clear
1:35 AM - - N/A% 29.81 in 10.0 mi SSW 6.9 mph - N/A   Clear
1:55 AM - - N/A% 29.81 in 10.0 mi SSW 6.9 mph - N/A   Clear
2:15 AM - - N/A% 29.80 in 10.0 mi SSW 6.9 mph - N/A   Clear
2:35 AM - - N/A% 29.81 in 10.0 mi SW 4.6 mph - N/A   Clear
2:55 AM - - N/A% 29.81 in 10.0 mi SSW 5.8 mph - N/A   Clear
3:15 AM - - N/A% 29.80 in 10.0 mi SSW 6.9 mph - N/A   Clear
3:35 AM - - N/A% 29.80 in 10.0 mi SW 9.2 mph - N/A   Clear
3:55 AM - - N/A% 29.81 in 10.0 mi SW 9.2 mph 16.1 mph N/A   Clear
4:15 AM - - N/A% 29.82 in 10.0 mi SW 10.4 mph - N/A   Clear
4:35 AM - - N/A% 29.83 in 10.0 mi SW 8.1 mph 16.1 mph N/A   Clear
4:55 AM - - N/A% 29.84 in 10.0 mi SSW 5.8 mph - N/A   Clear
5:15 AM - - N/A% 29.84 in 10.0 mi SSW 4.6 mph - N/A   Clear
5:35 AM - - N/A% 29.85 in 10.0 mi SSW 6.9 mph - N/A   Clear
5:55 AM - - N/A% 29.85 in 10.0 mi SSW 4.6 mph - N/A   Clear
6:15 AM - - N/A% 29.86 in 10.0 mi Calm Calm - N/A   Scattered Clouds
6:35 AM - - N/A% 29.86 in 10.0 mi SW 4.6 mph - N/A   Mostly Cloudy
6:55 AM - - N/A% 29.86 in 10.0 mi SSW 6.9 mph - N/A   Mostly Cloudy
7:15 AM - - N/A% 29.87 in 10.0 mi SW 10.4 mph - N/A   Scattered Clouds
7:35 AM - - N/A% 29.88 in 10.0 mi SW 10.4 mph 18.4 mph N/A   Mostly Cloudy
7:55 AM - - N/A% 29.89 in 10.0 mi SW 11.5 mph - N/A   Overcast
8:15 AM - - N/A% 29.89 in 10.0 mi SW 8.1 mph - N/A   Overcast
8:35 AM - - N/A% 29.90 in 10.0 mi SW 10.4 mph - N/A   Overcast
8:55 AM - - N/A% 29.91 in 10.0 mi WSW 11.5 mph 18.4 mph N/A   Scattered Clouds
9:15 AM - - N/A% 29.91 in 10.0 mi WSW 13.8 mph 24.2 mph N/A   Scattered Clouds
9:35 AM - - N/A% 29.92 in 10.0 mi West 13.8 mph 25.3 mph N/A   Mostly Cloudy
9:55 AM - - N/A% 29.93 in 10.0 mi West 18.4 mph 25.3 mph N/A   Overcast
10:15 AM - - N/A% 29.93 in 10.0 mi West 13.8 mph 25.3 mph N/A   Overcast
10:35 AM - - N/A% 29.94 in 10.0 mi West 13.8 mph 31.1 mph N/A   Mostly Cloudy
10:55 AM - - N/A% 29.95 in 10.0 mi WSW 16.1 mph 21.9 mph N/A   Mostly Cloudy
11:15 AM - - N/A% 29.95 in 10.0 mi West 9.2 mph 21.9 mph N/A   Mostly Cloudy
11:35 AM - - N/A% 29.96 in 10.0 mi WSW 11.5 mph 21.9 mph N/A   Mostly Cloudy
11:55 AM - - N/A% 29.96 in 10.0 mi West 13.8 mph 18.4 mph N/A   Overcast
12:15 PM - - N/A% 29.97 in 10.0 mi WNW 10.4 mph 18.4 mph N/A   Overcast
12:35 PM - - N/A% - - North - - N/A   Unknown
12:55 PM - - N/A% 29.97 in 10.0 mi WNW 11.5 mph 23.0 mph N/A   Mostly Cloudy
1:15 PM - - N/A% 29.97 in 10.0 mi West 16.1 mph 24.2 mph N/A   Mostly Cloudy
1:35 PM - - N/A% 29.98 in 10.0 mi WNW 18.4 mph 25.3 mph N/A   Mostly Cloudy
1:55 PM - - N/A% 29.98 in 10.0 mi West 16.1 mph 25.3 mph N/A   Mostly Cloudy
2:15 PM - - N/A% 29.98 in 10.0 mi West 11.5 mph 26.5 mph N/A   Scattered Clouds
2:35 PM - - N/A% 29.98 in 10.0 mi West 15.0 mph 26.5 mph N/A   Scattered Clouds
2:55 PM - - N/A% 29.98 in 10.0 mi West 9.2 mph 27.6 mph N/A   Mostly Cloudy
3:15 PM - - N/A% 29.98 in 10.0 mi West 13.8 mph 21.9 mph N/A   Scattered Clouds
3:35 PM - - N/A% 29.98 in 10.0 mi West 16.1 mph 25.3 mph N/A   Scattered Clouds
3:55 PM - - N/A% 29.99 in 10.0 mi West 16.1 mph 25.3 mph N/A   Scattered Clouds
4:15 PM - - N/A% 29.99 in 10.0 mi West 15.0 mph 25.3 mph N/A   Scattered Clouds
4:35 PM - - N/A% 29.99 in 10.0 mi West 11.5 mph 18.4 mph N/A   Scattered Clouds
4:55 PM - - N/A% 29.99 in 10.0 mi WNW 10.4 mph 25.3 mph N/A   Clear
5:15 PM - - N/A% 30.00 in 10.0 mi West 13.8 mph 24.2 mph N/A   Scattered Clouds
5:35 PM - - N/A% 30.01 in 10.0 mi West 15.0 mph 27.6 mph N/A   Clear
5:55 PM - - N/A% 30.01 in 10.0 mi West 18.4 mph 24.2 mph N/A   Clear
6:15 PM - - N/A% 30.01 in 10.0 mi West 11.5 mph 24.2 mph N/A   Clear
6:35 PM - - N/A% 30.02 in 10.0 mi West 13.8 mph 21.9 mph N/A   Clear
6:55 PM - - N/A% 30.01 in 10.0 mi West 12.7 mph 18.4 mph N/A   Clear
7:15 PM - - N/A% 30.02 in 10.0 mi West 8.1 mph 19.6 mph N/A   Clear
7:35 PM - - N/A% 30.03 in 10.0 mi West 8.1 mph 17.3 mph N/A   Clear
7:55 PM - - N/A% 30.03 in 10.0 mi West 6.9 mph - N/A   Clear
8:15 PM - - N/A% 30.03 in 10.0 mi West 6.9 mph - N/A   Clear
8:35 PM - - N/A% 30.04 in 10.0 mi SW 8.1 mph - N/A   Clear
8:55 PM - - N/A% 30.04 in 10.0 mi WSW 4.6 mph - N/A   Clear
9:15 PM - - N/A% 30.04 in 10.0 mi West 6.9 mph - N/A   Clear
9:35 PM - - N/A% 30.06 in 10.0 mi SW 5.8 mph - N/A   Clear
9:55 PM - - N/A% 30.08 in 10.0 mi SSW 5.8 mph - N/A   Clear
10:15 PM - - N/A% 30.08 in 10.0 mi SW 4.6 mph - N/A   Clear
10:35 PM - - N/A% 30.09 in 10.0 mi South 4.6 mph - N/A   Clear